Weather in Podgornyy

Russia / Tula Oblast     53°30′00″N   37°02′36″E
temp.,
°C
wind,
m/s
gust,
m/s
humid.,
%
clouds,
%
prec.,
mm/h
press.,
hPa
HPBL,
m
11 may, tue
tue1100:00+7ne6147893 0.0 1024415
03:00+7nne6158386 0.0 1023361
06:00+7nne716865 0.0 1023372
09:00+12ne814775 0.0 1022511
12:00+16ne8117130 0.0 1022953
15:00+16ene71176100 0.1 10221204
18:00+11ese51079100 0.1 1024559
21:00+8ene38933 0.1 1025143
12 may, wed
wed1200:00+7ese39900 0.0 1026205
03:00+5ese36946 0.0 1027117
06:00+6ene3489100 0.0 1026106
09:00+10ene3575100 0.0 1025421
12:00+8ne2389100 3.3 1023352
15:00+7ssw3596100 9.4 1020292
18:00+9sse468428 1.9 1018567
21:00+6e4119469 1.9 1019251
13 may, thu
thu1300:00+8ese7169078 0.6 1018582
03:00+7ese6139597 0.6 1018422
06:00+7se4109691 0.0 1019326
09:00+12sse477872 0.0 1018657
12:00+15sse566799 0.3 10171181
15:00+16sse566440 1.4 10161308
18:00+16sse477670 1.0 1016825
21:00+11se37936 2.6 1016123
14 may, fri
fri1400:00+11se499481 0.3 1016169
03:00+12se3893100 0.3 1016182
06:00+12se51294100 0.2 1016314
09:00+16se6128798 0.9 1015573
12:00+20se71074100 0.2 10141077
15:00+20sse6107451 0.8 1013996
18:00+20sse51079100 2.6 1011457
21:00+16s479180 7.7 1012119
15 may, sat
sat1500:00+15sse229197 0.6 101222
03:00+15ese2394100 4.1 101167
06:00+15e4695100 0.4 1010112
09:00+18se348498 1.2 1010304
12:00+20ssw587619 4.3 1009992
15:00+22ssw686714 4.8 10091373
18:00+20ssw697795 2.4 1008542
21:00+16ssw3790100 3.6 1008141